Regional Weather Roundup
Issued by NWS

Home | Current Version | Previous Version | Graphics & Text | Print | Product List | Glossary On
Versions: 1 2 3 4 5 6 7 8 9 10 11 12 13 14 15 16 17 18 19 20 21 22 23 24 25 26 27 28 29 30 31 32 33 34 35 36 37 38 39 40 41 42 43 44 45 46 47 48 49 50
000
ASUS43 KDMX 211906
RWRIA

WEATHER ROUNDUP FOR IOWA
NATIONAL WEATHER SERVICE DES MOINES IA
200 PM CDT MON MAY 21 2018

NOTE: "FAIR" INDICATES FEW OR NO CLOUDS BELOW 12,000 FEET WITH NO
SIGNIFICANT WEATHER AND/OR OBSTRUCTIONS TO VISIBILITY.

* - THESE STATIONS ARE NOT NWS STATIONS...THUS NOT UNDER NWS
QUALITY CONTROL.  THEY ALSO DO NOT REPORT WEATHER SUCH
AS PRECIPITATION OR FOG.

IAZ001>003-012>014-020>022-031>034-043>046-212000-
   NORTHWEST IOWA

CITY           SKY/WX    TMP DP  RH WIND       PRES   REMARKS
CARROLL *      CLOUDY   N/A N/A N/A CALM      30.02S
CHEROKEE *     CLOUDY    62  60  93 CALM      30.02F
DENISON *      CLOUDY    66  61  82 W9        30.03F
LE MARS *      CLOUDY    64  57  77 NW3       30.01F
ORANGE CITY *  CLOUDY    63  59  88 CALM      30.02F
SHELDON *      CLOUDY    61  61 100 CALM      30.01F
SIOUX CITY     CLOUDY    64  56  75 CALM      30.02F
SPENCER        CLOUDY    61  57  87 S7        30.03S
STORM LAKE *   MOSUNNY   61  61 100 SW5       30.02F FOG
$$

IAZ055>058-069>071-079>083-090>094-212000-
   SOUTHWEST IOWA

CITY           SKY/WX    TMP DP  RH WIND       PRES   REMARKS
ATLANTIC *     PTSUNNY   70  61  73 VRB5      30.02F
AUDUBON *      CLOUDY    68  63  83 CALM      30.03F
CLARINDA *     CLOUDY    72  59  64 CALM      30.05F
COUNCIL BLFS * CLOUDY    64  64 100 W6        30.03F
CRESTON *      CLOUDY    72  63  73 SW7G15    30.03F
HARLAN  *      CLOUDY    64  63  94 SW10      30.06F
LAMONI         CLOUDY    68  62  81 SW8       30.03S
RED OAK *      PTSUNNY   72  59  64 W7        30.02F
SHENANDOAH *   MOSUNNY   72  57  60 W7G14     30.03F
$$

IAZ047>049-059>061-072>074-084-212000-
   CENTRAL IOWA

CITY           SKY/WX    TMP DP  RH WIND       PRES   REMARKS
AMES           CLOUDY    63  59  87 W6        30.02S
ANKENY *       CLOUDY    64  61  88 NW7       30.03R
BOONE *        PTSUNNY   64  61  88 CALM      30.01F FOG
CHARITON *     PTSUNNY   70  64  83 W8        30.01F
DES MOINES     CLOUDY    67  61  81 W7        30.01S
GRINNELL*      CLOUDY    63  60  90 NW5       30.03S
KNOXVILLE *    CLOUDY    64  61  88 W7        30.01S
MARSHALLTOWN   CLOUDY    62  59  90 CALM      30.01F
NEWTON *       CLOUDY    63  61  94 W5        30.02S
PELLA *        CLOUDY    63  62  97 W7        30.03S FOG
PERRY *        CLOUDY    65  62  88 NW5       30.03S
$$

IAZ004>006-015-016-023>025-035-036-212000-
   NORTH CENTRAL IOWA

CITY           SKY/WX    TMP DP  RH WIND       PRES   REMARKS
ALGONA *       PTSUNNY   61  57  88 VRB3      30.03S
CLARION *      CLOUDY    61  57  88 CALM      30.03S
ESTHERVILLE    CLOUDY    60  57  89 S5        30.02F
FORT DODGE *   CLOUDY    61  58  90 W5        30.03S
MASON CITY     CLOUDY    59  56  89 E5        30.04F
FOREST CITY *  CLOUDY    59  59 100 E5        30.03S
WEBSTER CITY * CLOUDY    61  59  94 CALM      30.01S
IOWA FALLS *   CLOUDY    60  57  89 CALM      30.03F
$$

IAZ007>011-017>019-026>030-037>042-050>054-066-212000-
   NORTHEAST IOWA

CITY           SKY/WX    TMP DP  RH WIND       PRES   REMARKS
CEDAR RAPIDS   CLOUDY    61  60  97 CALM      30.00F FOG
CHARLES CITY * CLOUDY    57  55  94 E6        30.04F
CLINTON *        N/A     62  61  96 SE8       30.02F
DECORAH *      PTSUNNY   55  55 100 E6        30.03F FOG
DUBUQUE        LGT RAIN  58  56  93 E8        30.02F FOG
MONTICELLO *   PTSUNNY   61  61 100 SE5       30.01F
OELWEIN *      CLOUDY    59  57  94 SE3       30.03S
WATERLOO       CLOUDY    60  57  89 E3        30.01F
$$

IAZ064-065-067-068-078-212000-
   EAST CENTRAL IOWA

CITY           SKY/WX    TMP DP  RH WIND       PRES   REMARKS
DAVENPORT      CLOUDY    64  62  93 S9        30.02F
IOWA CITY      CLOUDY    67  63  87 SE3       30.00F
MT. PLEASANT * PTSUNNY   72  63  73 W15G22    29.99S
MUSCATINE *    CLOUDY    72  64  78 VRB5G12   29.99F
QUAD CITIES    CLOUDY    68  64  87 VRB6      30.00F
$$

IAZ062-063-075>077-085>089-095>099-212000-
   SOUTHEAST IOWA

CITY           SKY/WX    TMP DP  RH WIND       PRES   REMARKS
BURLINGTON     MOSUNNY   74  68  81 VRB6      29.98F
FAIRFIELD *    CLOUDY    72  63  73 W13       29.99F
FORT MADISON * PTSUNNY   75  68  78 S8        29.99F
KEOKUK *       CLOUDY    75  68  78 SW6G13    29.98F
OSKALOOSA *    CLOUDY    65  62  87 W10       30.02S
CENTERVILLE *    N/A     70  68  94 SW9       30.03F
OTTUMWA        CLOUDY    69  63  81 NW7       30.00F
WASHINGTON *   CLOUDY    73  70  88 SW14      30.00F
$$

ABBREVIATIONS USED IN REMARKS
   TC - TEMPERATURES IN CELSIUS
  WCI - WIND CHILL INDEX
   HX - HEAT INDEX
  VSB - VISIBILITY
$$





USA.gov is the U.S. government's official web portal to all federal, state and local government web resources and services.